Terminal Aerodrome Forecast
Issued by NWS Charleston, WV

Current Version | Previous Version | Graphics & Text | Print | Product List | Glossary On
Versions: 1 2 3 4 5 6 7 8 9 10 11 12 13 14 15 16 17 18 19 20 21 22 23
000
FTUS41 KRLX 220500 RRA
TAFBKW
TAF
KBKW 220544Z 2206/2306 00000KT P6SM BKN250
     FM221100 25004KT P6SM OVC100
     FM221500 27009G18KT P6SM OVC040
     FM221700 26010G17KT 5SM SHRA OVC040
     FM222000 27011G17KT P6SM BKN030
     FM222200 31009G18KT P6SM BKN030
     FM230300 31007KT P6SM SCT040=

USA.gov is the U.S. government's official web portal to all federal, state and local government web resources and services.